WAT3568 KPHX-MMUN

Flight info

Callsign WAT3568
Flight time N/A
Altitude 35000
Route ECLPS1 PHASE DCT ELP DCT KOBLE DCT KINEY DCT MAM UT22 VESKO UT11 URTEL UT47 XUDUN XUDUN1A
Aircraft A21N/M-SDE3FGHIRWY/LB1

Departure

Time 2026-05-04 00:26
Airport Phoenix Sky Harbor International Airport (KPHX)

Arrival

Time N/A
Airport Cancún International Airport (MMUN)
Time Latitude Longitude Altitude Speed Heading
2026-05-04 00:06 33.43412 -112.00776 1136 ft 0 kts 301°
2026-05-04 00:15 33.43410 -112.00771 1135 ft 2 kts 300°
2026-05-04 00:15 33.43406 -112.00753 1136 ft 2 kts 263°
2026-05-04 00:15 33.43411 -112.00736 1136 ft 2 kts 234°
2026-05-04 00:15 33.43422 -112.00723 1136 ft 2 kts 205°
2026-05-04 00:16 33.43433 -112.00719 1136 ft 0 kts 184°
2026-05-04 00:16 33.43440 -112.00719 1136 ft 0 kts 181°
2026-05-04 00:16 33.43441 -112.00719 1136 ft 0 kts 181°
2026-05-04 00:19 33.43440 -112.00719 1136 ft 0 kts 180°
2026-05-04 00:19 33.43432 -112.00719 1136 ft 0 kts 177°
2026-05-04 00:20 33.43431 -112.00719 1136 ft 0 kts 177°
2026-05-04 00:20 33.43422 -112.00718 1136 ft 1 kts 176°
2026-05-04 00:21 33.43411 -112.00717 1136 ft 0 kts 176°
2026-05-04 00:21 33.43408 -112.00717 1136 ft 0 kts 177°
2026-05-04 00:22 33.43395 -112.00718 1135 ft 3 kts 186°
2026-05-04 00:22 33.43352 -112.00729 1135 ft 9 kts 194°
2026-05-04 00:22 33.43279 -112.00748 1135 ft 11 kts 183°
2026-05-04 00:22 33.43219 -112.00689 1135 ft 13 kts 101°
2026-05-04 00:23 33.43215 -112.00574 1135 ft 14 kts 88°
2026-05-04 00:23 33.43216 -112.00447 1135 ft 15 kts 90°
2026-05-04 00:23 33.43217 -112.00308 1134 ft 17 kts 89°
2026-05-04 00:23 33.43216 -112.00159 1134 ft 18 kts 90°
2026-05-04 00:24 33.43216 -112.00002 1134 ft 19 kts 90°
2026-05-04 00:24 33.43216 -111.99833 1134 ft 20 kts 90°
2026-05-04 00:24 33.43214 -111.99661 1134 ft 20 kts 89°
2026-05-04 00:24 33.43214 -111.99493 1134 ft 19 kts 89°
2026-05-04 00:25 33.43211 -111.99381 1134 ft 7 kts 114°
2026-05-04 00:25 33.43184 -111.99327 1134 ft 6 kts 139°
2026-05-04 00:25 33.43132 -111.99341 1134 ft 11 kts 215°
2026-05-04 00:25 33.43103 -111.99461 1134 ft 27 kts 269°
2026-05-04 00:26 33.43098 -111.99989 1133 ft 97 kts 270°
2026-05-04 00:26 33.43105 -112.01047 1134 ft 154 kts 269°
2026-05-04 00:26 33.43112 -112.02445 1459 ft 169 kts 265°
2026-05-04 00:26 33.43146 -112.03874 2015 ft 172 kts 267°
2026-05-04 00:27 33.43198 -112.05312 2595 ft 174 kts 267°
2026-05-04 00:27 33.43185 -112.06762 3071 ft 173 kts 252°
2026-05-04 00:27 33.42786 -112.08160 3320 ft 181 kts 242°
2026-05-04 00:27 33.42266 -112.09604 3538 ft 196 kts 242°
2026-05-04 00:28 33.41719 -112.11171 3779 ft 212 kts 243°
2026-05-04 00:28 33.41147 -112.12907 4036 ft 230 kts 245°
2026-05-04 00:28 33.40563 -112.14751 4334 ft 247 kts 245°
2026-05-04 00:28 33.39703 -112.16604 4663 ft 256 kts 223°
2026-05-04 00:29 33.38225 -112.17759 5214 ft 258 kts 198°
2026-05-04 00:29 33.36464 -112.18027 5843 ft 260 kts 174°
2026-05-04 00:29 33.34679 -112.17487 6449 ft 264 kts 165°
2026-05-04 00:29 33.32885 -112.16846 7070 ft 266 kts 166°
2026-05-04 00:30 33.31118 -112.16222 7728 ft 267 kts 165°
2026-05-04 00:30 33.29376 -112.15372 8330 ft 273 kts 153°
2026-05-04 00:30 33.27840 -112.14035 8956 ft 279 kts 140°
2026-05-04 00:30 33.26418 -112.12399 9595 ft 283 kts 138°
2026-05-04 00:31 33.25056 -112.10717 10250 ft 287 kts 133°
2026-05-04 00:31 33.23902 -112.08671 10706 ft 302 kts 121°
2026-05-04 00:31 33.23113 -112.06293 10982 ft 321 kts 111°
2026-05-04 00:31 33.22413 -112.03631 11270 ft 338 kts 110°
2026-05-04 00:32 33.21721 -112.00900 11691 ft 349 kts 110°
2026-05-04 00:32 33.21010 -111.98096 12297 ft 353 kts 110°
2026-05-04 00:32 33.20276 -111.95242 12912 ft 357 kts 110°
2026-05-04 00:32 33.19526 -111.92349 13521 ft 361 kts 111°
2026-05-04 00:33 33.18767 -111.89445 14089 ft 366 kts 111°
2026-05-04 00:33 33.17175 -111.83398 15164 ft 377 kts 111°
2026-05-04 00:33 33.16376 -111.80370 15671 ft 383 kts 111°
2026-05-04 00:34 33.15568 -111.77301 16195 ft 388 kts 110°
2026-05-04 00:34 33.14765 -111.74255 16692 ft 393 kts 110°
2026-05-04 00:34 33.13933 -111.71113 17169 ft 398 kts 110°
2026-05-04 00:34 33.13066 -111.67829 17633 ft 405 kts 110°
2026-05-04 00:35 33.12216 -111.64612 18121 ft 409 kts 110°
2026-05-04 00:35 33.11330 -111.61267 18583 ft 415 kts 110°
2026-05-04 00:35 33.10401 -111.57764 19053 ft 420 kts 110°
2026-05-04 00:35 33.09515 -111.54436 19529 ft 424 kts 110°
2026-05-04 00:36 33.08605 -111.51018 19958 ft 429 kts 110°
2026-05-04 00:36 33.07662 -111.47624 20423 ft 432 kts 114°
2026-05-04 00:36 33.06477 -111.44348 20842 ft 434 kts 120°
2026-05-04 00:36 33.04891 -111.41022 21273 ft 435 kts 126°
2026-05-04 00:37 33.03201 -111.37911 21696 ft 439 kts 127°
2026-05-04 00:37 33.01403 -111.34684 22162 ft 442 kts 129°
2026-05-04 00:37 32.99675 -111.31581 22576 ft 446 kts 128°
2026-05-04 00:37 32.97925 -111.28427 22944 ft 450 kts 128°
2026-05-04 00:38 32.96080 -111.25088 23344 ft 455 kts 128°
2026-05-04 00:38 32.94259 -111.21779 23722 ft 459 kts 128°
2026-05-04 00:38 32.92305 -111.18239 24126 ft 463 kts 129°
2026-05-04 00:38 32.90470 -111.14902 24490 ft 467 kts 129°
2026-05-04 00:39 32.88682 -111.11659 24838 ft 470 kts 128°
2026-05-04 00:39 32.86847 -111.08334 25187 ft 473 kts 129°
2026-05-04 00:39 32.85021 -111.05026 25527 ft 475 kts 129°
2026-05-04 00:39 32.83195 -111.01725 25859 ft 478 kts 128°
2026-05-04 00:40 32.81309 -110.98310 26175 ft 481 kts 129°
2026-05-04 00:40 32.79377 -110.94818 26495 ft 484 kts 129°
2026-05-04 00:40 32.77535 -110.91491 26810 ft 486 kts 129°
2026-05-04 00:40 32.75650 -110.88095 27062 ft 490 kts 129°
2026-05-04 00:41 32.73759 -110.84683 27364 ft 492 kts 129°
2026-05-04 00:41 32.71873 -110.81293 27653 ft 495 kts 129°
2026-05-04 00:41 32.69888 -110.77717 27912 ft 498 kts 129°
2026-05-04 00:41 32.67927 -110.74194 28152 ft 502 kts 129°
2026-05-04 00:42 32.66023 -110.70596 28407 ft 507 kts 124°
2026-05-04 00:42 32.64395 -110.66734 28727 ft 513 kts 117°
2026-05-04 00:42 32.63155 -110.62647 29010 ft 518 kts 110°
2026-05-04 00:42 32.62201 -110.58522 29243 ft 522 kts 107°
2026-05-04 00:43 32.61310 -110.54329 29468 ft 525 kts 106°
2026-05-04 00:43 32.60435 -110.50146 29731 ft 526 kts 105°
2026-05-04 00:43 32.59549 -110.45974 30056 ft 526 kts 106°
2026-05-04 00:43 32.58626 -110.41710 30375 ft 526 kts 107°
2026-05-04 00:44 32.57722 -110.37567 30662 ft 526 kts 107°
2026-05-04 00:44 32.56783 -110.33357 30921 ft 527 kts 108°
2026-05-04 00:44 32.55845 -110.29137 31169 ft 527 kts 108°
2026-05-04 00:44 32.54911 -110.24950 31432 ft 526 kts 108°
2026-05-04 00:45 32.53972 -110.20771 31656 ft 527 kts 108°
2026-05-04 00:45 32.53035 -110.16573 31844 ft 529 kts 108°
2026-05-04 00:45 32.52084 -110.12337 32086 ft 528 kts 108°
2026-05-04 00:45 32.51114 -110.08038 32319 ft 529 kts 108°
2026-05-04 00:46 32.50178 -110.03879 32502 ft 530 kts 108°
2026-05-04 00:46 32.49229 -109.99664 32688 ft 531 kts 108°
2026-05-04 00:46 32.48237 -109.95272 32904 ft 531 kts 108°
2026-05-04 00:46 32.47287 -109.91059 33108 ft 531 kts 108°
2026-05-04 00:47 32.46251 -109.86488 33369 ft 531 kts 108°
2026-05-04 00:47 32.45264 -109.82140 33640 ft 530 kts 108°
2026-05-04 00:47 32.44283 -109.77785 33902 ft 531 kts 106°
2026-05-04 00:47 32.43483 -109.73506 34126 ft 532 kts 102°
2026-05-04 00:48 32.42887 -109.69193 34373 ft 532 kts 100°
2026-05-04 00:48 32.42349 -109.64863 34629 ft 531 kts 100°
2026-05-04 00:48 32.41828 -109.60532 34831 ft 532 kts 99°
2026-05-04 00:48 32.41297 -109.56241 34965 ft 533 kts 100°
2026-05-04 00:49 32.40762 -109.51910 35064 ft 536 kts 99°
2026-05-04 00:49 32.39643 -109.43137 35093 ft 540 kts 99°
2026-05-04 00:50 32.38526 -109.34394 35099 ft 539 kts 101°
2026-05-04 00:50 32.37397 -109.25610 35101 ft 538 kts 101°
2026-05-04 00:51 32.36255 -109.16912 35121 ft 538 kts 101°
2026-05-04 00:51 32.34856 -109.08264 35128 ft 536 kts 104°
2026-05-04 00:52 32.33287 -108.99683 35147 ft 536 kts 105°
2026-05-04 00:52 32.31716 -108.91109 35146 ft 535 kts 104°
2026-05-04 00:53 32.30157 -108.82526 35137 ft 535 kts 104°
2026-05-04 00:53 32.28625 -108.73998 35126 ft 534 kts 103°
2026-05-04 00:54 32.27065 -108.65383 35122 ft 533 kts 104°
2026-05-04 00:54 32.25515 -108.56841 35119 ft 533 kts 104°
2026-05-04 00:55 32.23957 -108.48347 35134 ft 532 kts 104°
2026-05-04 00:55 32.22389 -108.39806 35145 ft 533 kts 104°
2026-05-04 00:56 32.20822 -108.31282 35144 ft 532 kts 104°
2026-05-04 00:56 32.19248 -108.22738 35156 ft 530 kts 104°
2026-05-04 00:57 32.17681 -108.14312 35148 ft 529 kts 104°
2026-05-04 00:57 32.16103 -108.05867 35149 ft 529 kts 104°
2026-05-04 00:58 32.14512 -107.97388 35143 ft 529 kts 104°
2026-05-04 00:58 32.12925 -107.88915 35144 ft 529 kts 104°
2026-05-04 00:59 32.11337 -107.80492 35128 ft 527 kts 104°
2026-05-04 00:59 32.09746 -107.72066 35109 ft 528 kts 105°
2026-05-04 01:00 32.08136 -107.63584 35107 ft 528 kts 104°
2026-05-04 01:00 32.06533 -107.55190 35107 ft 526 kts 104°
2026-05-04 01:01 32.04927 -107.46818 35110 ft 528 kts 104°
2026-05-04 01:01 32.03319 -107.38416 35118 ft 528 kts 103°
2026-05-04 01:02 32.01688 -107.29993 35131 ft 528 kts 104°
2026-05-04 01:02 32.00063 -107.21579 35136 ft 527 kts 104°
2026-05-04 01:03 31.98435 -107.13179 35137 ft 527 kts 104°
2026-05-04 01:03 31.96793 -107.04791 35132 ft 528 kts 104°
2026-05-04 01:04 31.95143 -106.96358 35130 ft 528 kts 104°
2026-05-04 01:04 31.93496 -106.87985 35123 ft 529 kts 104°
2026-05-04 01:05 31.91839 -106.79570 35113 ft 527 kts 104°
2026-05-04 01:05 31.90187 -106.71236 35110 ft 527 kts 104°
2026-05-04 01:06 31.88519 -106.62834 35108 ft 527 kts 104°
2026-05-04 01:06 31.86843 -106.54415 35107 ft 528 kts 104°
2026-05-04 01:07 31.85169 -106.46067 35109 ft 528 kts 104°
2026-05-04 01:07 31.83495 -106.37688 35104 ft 528 kts 104°
2026-05-04 01:08 31.81691 -106.29352 35097 ft 525 kts 109°
2026-05-04 01:08 31.79086 -106.21332 35101 ft 522 kts 117°
2026-05-04 01:09 31.76131 -106.13595 35109 ft 522 kts 117°
2026-05-04 01:09 31.73138 -106.05769 35126 ft 523 kts 117°
2026-05-04 01:10 31.70189 -105.97965 35146 ft 523 kts 117°
2026-05-04 01:10 31.67244 -105.90198 35160 ft 524 kts 117°
2026-05-04 01:11 31.64258 -105.82321 35167 ft 524 kts 117°
2026-05-04 01:11 31.61305 -105.74554 35167 ft 523 kts 117°
2026-05-04 01:12 31.58332 -105.66731 35168 ft 523 kts 117°
2026-05-04 01:12 31.55360 -105.58965 35167 ft 524 kts 118°
2026-05-04 01:13 31.52399 -105.51230 35165 ft 524 kts 117°
2026-05-04 01:13 31.49419 -105.43444 35158 ft 524 kts 117°
2026-05-04 01:14 31.46440 -105.35682 35156 ft 525 kts 117°
2026-05-04 01:14 31.43450 -105.27908 35146 ft 523 kts 117°
2026-05-04 01:15 31.40440 -105.20124 35151 ft 525 kts 117°
2026-05-04 01:15 31.37428 -105.12335 35160 ft 525 kts 118°
2026-05-04 01:16 31.34408 -105.04545 35169 ft 525 kts 118°
2026-05-04 01:16 31.31367 -104.96722 35182 ft 527 kts 118°
2026-05-04 01:17 31.28338 -104.88950 35175 ft 526 kts 117°
2026-05-04 01:17 31.25300 -104.81161 35166 ft 528 kts 118°
2026-05-04 01:18 31.22262 -104.73396 35148 ft 528 kts 117°
2026-05-04 01:18 31.19218 -104.65629 35147 ft 528 kts 117°
2026-05-04 01:19 31.16175 -104.57869 35149 ft 528 kts 118°
2026-05-04 01:19 31.13092 -104.50053 35153 ft 529 kts 117°
2026-05-04 01:20 31.10012 -104.42244 35146 ft 530 kts 117°
2026-05-04 01:20 31.06931 -104.34457 35155 ft 530 kts 118°
2026-05-04 01:21 31.03858 -104.26692 35161 ft 530 kts 118°
2026-05-04 01:21 31.00755 -104.18870 35173 ft 531 kts 118°
2026-05-04 01:22 30.97640 -104.11050 35169 ft 532 kts 117°
2026-05-04 01:22 30.94505 -104.03179 35179 ft 531 kts 117°
2026-05-04 01:23 30.91400 -103.95420 35173 ft 532 kts 117°
2026-05-04 01:23 30.88259 -103.87571 35161 ft 532 kts 118°
2026-05-04 01:24 30.85136 -103.79803 35157 ft 531 kts 117°
2026-05-04 01:24 30.82014 -103.72041 35140 ft 530 kts 117°
2026-05-04 01:25 30.78888 -103.64290 35142 ft 531 kts 117°
2026-05-04 01:25 30.75751 -103.56516 35135 ft 531 kts 117°
2026-05-04 01:26 30.72603 -103.48751 35120 ft 532 kts 117°
2026-05-04 01:26 30.69437 -103.40956 35116 ft 532 kts 116°
2026-05-04 01:27 30.66274 -103.33157 35105 ft 532 kts 117°
2026-05-04 01:27 30.63122 -103.25426 35110 ft 531 kts 117°
2026-05-04 01:28 30.59955 -103.17659 35113 ft 531 kts 117°
2026-05-04 01:28 30.56794 -103.09930 35105 ft 533 kts 117°
2026-05-04 01:29 30.53619 -103.02196 35113 ft 533 kts 117°
2026-05-04 01:29 30.50418 -102.94408 35119 ft 533 kts 117°
2026-05-04 01:30 30.47250 -102.86704 35114 ft 532 kts 117°
2026-05-04 01:30 30.44066 -102.78989 35114 ft 533 kts 117°
2026-05-04 01:31 30.40867 -102.71254 35110 ft 533 kts 116°
2026-05-04 01:31 30.37650 -102.63474 35110 ft 532 kts 116°
2026-05-04 01:32 30.34443 -102.55755 35102 ft 533 kts 116°
2026-05-04 01:32 30.31231 -102.48035 35096 ft 533 kts 117°
2026-05-04 01:33 30.28038 -102.40366 35088 ft 533 kts 117°
2026-05-04 01:33 30.24811 -102.32654 35069 ft 532 kts 117°
2026-05-04 01:34 30.21603 -102.24977 35059 ft 531 kts 117°
2026-05-04 01:34 30.18373 -102.17290 35053 ft 532 kts 117°
2026-05-04 01:35 30.15130 -102.09571 35042 ft 533 kts 117°
2026-05-04 01:35 30.11889 -102.01872 35037 ft 533 kts 117°
2026-05-04 01:36 30.08647 -101.94189 35034 ft 532 kts 117°
2026-05-04 01:36 30.05416 -101.86551 35035 ft 532 kts 116°
2026-05-04 01:37 30.02162 -101.78864 35037 ft 532 kts 117°
2026-05-04 01:37 29.98917 -101.71231 35040 ft 533 kts 117°
2026-05-04 01:38 29.95653 -101.63549 35047 ft 533 kts 116°
2026-05-04 01:38 29.92391 -101.55889 35045 ft 533 kts 116°
2026-05-04 01:39 29.89133 -101.48258 35049 ft 533 kts 116°
2026-05-04 01:39 29.85654 -101.40706 35061 ft 532 kts 121°
2026-05-04 01:40 29.81852 -101.33422 35066 ft 531 kts 123°
2026-05-04 01:40 29.78118 -101.26321 35071 ft 531 kts 122°
2026-05-04 01:41 29.74333 -101.19100 35077 ft 531 kts 122°
2026-05-04 01:41 29.70545 -101.11862 35075 ft 530 kts 122°
2026-05-04 01:42 29.66425 -101.04918 35063 ft 526 kts 137°
2026-05-04 01:42 29.60941 -100.99468 35073 ft 519 kts 146°
2026-05-04 01:43 29.55276 -100.94307 35070 ft 519 kts 146°
2026-05-04 01:43 29.49655 -100.89091 35061 ft 521 kts 145°
2026-05-04 01:44 29.43983 -100.83750 35057 ft 520 kts 145°
2026-05-04 01:44 29.38388 -100.78470 35056 ft 521 kts 144°
2026-05-04 01:45 29.32794 -100.73190 35055 ft 521 kts 145°
2026-05-04 01:45 29.24430 -100.65320 35059 ft 521 kts 144°
2026-05-04 01:46 29.18845 -100.60073 35066 ft 520 kts 145°
2026-05-04 01:46 29.13256 -100.54831 35066 ft 519 kts 144°
2026-05-04 01:47 29.07653 -100.49583 35062 ft 521 kts 145°
2026-05-04 01:47 29.02055 -100.44345 35055 ft 521 kts 144°
2026-05-04 01:48 28.96436 -100.39091 35052 ft 521 kts 145°
2026-05-04 01:48 28.90812 -100.33851 35048 ft 521 kts 146°
2026-05-04 01:49 28.85164 -100.28590 35050 ft 521 kts 145°
2026-05-04 01:49 28.79541 -100.23358 35050 ft 520 kts 145°
2026-05-04 01:50 28.74244 -100.18439 35047 ft 521 kts 145°
2026-05-04 01:50 28.68663 -100.13265 35046 ft 520 kts 145°
2026-05-04 01:51 28.63012 -100.08033 35050 ft 521 kts 145°
2026-05-04 01:51 28.57391 -100.02833 35052 ft 521 kts 145°
2026-05-04 01:52 28.51760 -99.97633 35056 ft 520 kts 145°
2026-05-04 01:52 28.46146 -99.92453 35053 ft 520 kts 145°
2026-05-04 01:53 28.40531 -99.87289 35061 ft 521 kts 145°
2026-05-04 01:53 28.34868 -99.82076 35056 ft 521 kts 145°
2026-05-04 01:54 28.29269 -99.76939 35056 ft 521 kts 145°
2026-05-04 01:54 28.23617 -99.71757 35051 ft 521 kts 144°
2026-05-04 01:55 28.17985 -99.66598 35056 ft 522 kts 145°
2026-05-04 01:55 28.12353 -99.61446 35055 ft 522 kts 145°
2026-05-04 01:56 28.06667 -99.56256 35057 ft 522 kts 144°
2026-05-04 01:56 28.01030 -99.51114 35062 ft 521 kts 145°
2026-05-04 01:57 27.95367 -99.45959 35054 ft 522 kts 145°
2026-05-04 01:57 27.89695 -99.40801 35046 ft 522 kts 145°
2026-05-04 01:58 27.84140 -99.35757 35043 ft 521 kts 144°
2026-05-04 01:58 27.78477 -99.30621 35046 ft 520 kts 145°
2026-05-04 01:59 27.72969 -99.25636 35042 ft 521 kts 145°
2026-05-04 01:59 27.67302 -99.20513 35050 ft 522 kts 145°
2026-05-04 02:00 27.61633 -99.15393 35053 ft 522 kts 145°
2026-05-04 02:00 27.55998 -99.10308 35055 ft 521 kts 145°
2026-05-04 02:01 27.50346 -99.05218 35055 ft 521 kts 145°
2026-05-04 02:01 27.44690 -99.00131 35063 ft 521 kts 145°
2026-05-04 02:02 27.39034 -98.95054 35067 ft 520 kts 144°
2026-05-04 02:02 27.33382 -98.89983 35070 ft 520 kts 145°
2026-05-04 02:03 27.27733 -98.84920 35070 ft 521 kts 145°
2026-05-04 02:03 27.22048 -98.79834 35073 ft 521 kts 145°
2026-05-04 02:04 27.16403 -98.74789 35069 ft 520 kts 145°
2026-05-04 02:04 27.10718 -98.69720 35069 ft 521 kts 144°
2026-05-04 02:05 27.05069 -98.64683 35067 ft 521 kts 144°
2026-05-04 02:05 26.99398 -98.59640 35069 ft 522 kts 144°
2026-05-04 02:06 26.93720 -98.54591 35070 ft 523 kts 144°
2026-05-04 02:06 26.87980 -98.49496 35064 ft 522 kts 144°
2026-05-04 02:07 26.82236 -98.44404 35069 ft 523 kts 145°
2026-05-04 02:07 26.76512 -98.39334 35073 ft 523 kts 144°
2026-05-04 02:08 26.70675 -98.34179 35070 ft 524 kts 145°
2026-05-04 02:08 26.64972 -98.29138 35071 ft 522 kts 145°
2026-05-04 02:09 26.59301 -98.24143 35071 ft 523 kts 145°
2026-05-04 02:09 26.53601 -98.19122 35076 ft 521 kts 144°
2026-05-04 02:10 26.47893 -98.14102 35079 ft 522 kts 145°
2026-05-04 02:10 26.42184 -98.09086 35081 ft 523 kts 145°
2026-05-04 02:11 26.36466 -98.04073 35082 ft 523 kts 145°
2026-05-04 02:11 26.30772 -97.99087 35084 ft 523 kts 144°
2026-05-04 02:12 26.25040 -97.94070 35085 ft 522 kts 144°
2026-05-04 02:12 26.19361 -97.89110 35086 ft 521 kts 144°
2026-05-04 02:13 26.13669 -97.84136 35087 ft 521 kts 144°
2026-05-04 02:13 26.07913 -97.79125 35088 ft 521 kts 144°
2026-05-04 02:14 26.02216 -97.74159 35088 ft 521 kts 144°
2026-05-04 02:14 25.96513 -97.69198 35087 ft 520 kts 144°
2026-05-04 02:15 25.90753 -97.64198 35084 ft 521 kts 144°
2026-05-04 02:15 25.85004 -97.59212 35087 ft 521 kts 144°
2026-05-04 02:16 25.79466 -97.53820 35089 ft 522 kts 136°
2026-05-04 02:16 25.74738 -97.47714 35085 ft 522 kts 126°
2026-05-04 02:17 25.70855 -97.40983 35088 ft 521 kts 118°
2026-05-04 02:17 25.67232 -97.34016 35084 ft 521 kts 119°
2026-05-04 02:18 25.63593 -97.27106 35086 ft 521 kts 120°
2026-05-04 02:18 25.59917 -97.20225 35081 ft 520 kts 120°
2026-05-04 02:19 25.56235 -97.13336 35083 ft 520 kts 120°
2026-05-04 02:19 25.52562 -97.06477 35078 ft 519 kts 120°
2026-05-04 02:20 25.48879 -96.99632 35084 ft 519 kts 120°
2026-05-04 02:20 25.45197 -96.92789 35086 ft 519 kts 120°
2026-05-04 02:21 25.41526 -96.85956 35090 ft 518 kts 120°
2026-05-04 02:21 25.37829 -96.79100 35090 ft 518 kts 120°
2026-05-04 02:22 25.34155 -96.72292 35089 ft 518 kts 120°
2026-05-04 02:22 25.30460 -96.65449 35088 ft 517 kts 120°
2026-05-04 02:23 25.26785 -96.58662 35088 ft 517 kts 120°
2026-05-04 02:23 25.23092 -96.51846 35091 ft 518 kts 120°
2026-05-04 02:24 25.19414 -96.45071 35097 ft 518 kts 120°
2026-05-04 02:24 25.15703 -96.38244 35092 ft 517 kts 120°
2026-05-04 02:25 25.12014 -96.31464 35090 ft 517 kts 121°
2026-05-04 02:25 25.08324 -96.24704 35095 ft 517 kts 121°
2026-05-04 02:26 25.04623 -96.17921 35090 ft 516 kts 121°
2026-05-04 02:26 25.00921 -96.11147 35095 ft 515 kts 120°
2026-05-04 02:27 24.97232 -96.04394 35090 ft 515 kts 121°
2026-05-04 02:27 24.93543 -95.97675 35084 ft 515 kts 121°
2026-05-04 02:28 24.89821 -95.90900 35086 ft 514 kts 121°
2026-05-04 02:28 24.86140 -95.84203 35081 ft 515 kts 121°
2026-05-04 02:29 24.82435 -95.77471 35086 ft 515 kts 121°
2026-05-04 02:29 24.78729 -95.70739 35086 ft 514 kts 121°
2026-05-04 02:30 24.75037 -95.64053 35080 ft 514 kts 121°
2026-05-04 02:30 24.71305 -95.57321 35078 ft 514 kts 121°
2026-05-04 02:31 24.67607 -95.50650 35083 ft 514 kts 121°
2026-05-04 02:31 24.63884 -95.43933 35083 ft 514 kts 121°
2026-05-04 02:32 24.60180 -95.37262 35082 ft 514 kts 121°
2026-05-04 02:32 24.56464 -95.30576 35084 ft 513 kts 121°
2026-05-04 02:33 24.52743 -95.23888 35080 ft 513 kts 122°
2026-05-04 02:33 24.49024 -95.17214 35080 ft 512 kts 121°
2026-05-04 02:34 24.45318 -95.10580 35079 ft 513 kts 122°
2026-05-04 02:34 24.41581 -95.03918 35081 ft 512 kts 122°
2026-05-04 02:35 24.37843 -94.97252 35076 ft 513 kts 122°
2026-05-04 02:35 24.34129 -94.90639 35080 ft 512 kts 122°
2026-05-04 02:36 24.30391 -94.83986 35072 ft 511 kts 122°
2026-05-04 02:36 24.26688 -94.77402 35073 ft 511 kts 122°
2026-05-04 02:37 24.22947 -94.70757 35073 ft 510 kts 122°
2026-05-04 02:37 24.19234 -94.64175 35071 ft 510 kts 122°
2026-05-04 02:38 24.15622 -94.57521 35072 ft 510 kts 118°
2026-05-04 02:38 24.13556 -94.52827 35072 ft 510 kts 112°